Theta_e
306 308 308 309 310 311 310 309 308 306 307 305 306 306 308 307 306 315 316 317 316 316 339 332 338 339 343 349 353 355 366 367 359 362 359 357 361 357 356 358 355 354 351 344 342
308 308 308 308 309 311 311 309 309 307 306 306 306 306 308 308 316 319 318 316 313 318 341 335 339 338 347 348 354 357 366 360 356 356 359 358 358 357 360 358 358 354 347 343 343
310 309 308 306 308 310 308 311 309 309 307 306 306 307 308 313 323 321 318 314 311 326 334 334 332 338 341 345 354 355 362 355 353 355 356 357 359 353 361 363 357 353 348 345 344
311 310 308 308 308 309 310 310 310 308 307 307 306 308 309 321 327 332 321 312 310 329 335 331 331 336 335 337 346 356 358 352 350 349 355 359 357 358 358 360 355 351 347 345 345
310 309 309 309 310 310 311 312 312 310 308 308 307 308 319 322 320 331 318 310 317 332 334 329 331 333 330 333 340 351 353 349 347 349 353 357 356 357 359 356 355 351 346 345 344
310 311 311 311 311 312 311 312 312 310 308 306 308 310 319 320 320 326 322 320 320 330 331 328 329 329 329 332 337 339 351 348 346 345 353 355 355 357 357 357 356 351 346 345 344
313 313 313 313 313 313 312 311 310 309 307 306 307 318 320 319 324 325 325 321 324 329 329 326 326 327 329 332 334 341 352 349 344 343 350 355 358 361 357 356 355 350 347 345 343
312 312 312 312 314 313 313 310 314 313 307 305 309 320 323 318 324 326 327 323 325 327 326 324 324 326 329 332 333 342 349 350 348 343 349 357 363 360 357 357 355 350 347 345 343
312 312 312 313 312 312 311 315 316 309 305 308 320 324 320 322 326 326 325 323 324 325 324 323 323 326 330 333 337 340 351 349 350 347 350 359 365 360 357 357 354 351 347 347 345
312 313 312 312 312 311 311 315 319 316 317 320 323 323 326 321 324 326 323 322 323 324 324 323 324 326 329 336 339 341 350 348 351 350 350 363 365 361 358 359 357 352 349 348 347
313 313 312 312 311 309 316 319 325 326 320 322 321 323 323 321 323 324 323 322 323 324 326 324 324 325 327 329 334 336 345 349 346 348 349 354 359 364 360 358 360 357 352 351 351
313 312 312 311 309 309 317 322 319 319 322 319 320 321 322 324 325 325 324 326 326 324 324 326 326 325 326 328 330 335 341 346 345 347 346 352 357 356 360 361 357 359 357 353 350
313 313 312 310 310 313 320 318 317 318 321 321 319 320 323 323 324 324 325 326 325 324 323 326 326 326 325 329 333 337 340 343 346 340 340 340 348 352 351 354 360 358 356 352 348
314 313 310 311 313 318 319 317 317 317 323 319 318 320 322 322 321 323 323 325 325 324 324 325 325 325 326 333 334 336 336 340 339 340 345 340 347 352 351 353 356 358 358 353 350
314 312 309 311 318 320 318 317 317 318 324 317 317 320 321 321 321 323 322 325 327 326 326 325 325 325 328 332 332 332 332 338 337 337 340 340 341 346 352 353 356 356 357 355 352
313 313 311 315 316 318 317 318 317 320 324 318 319 320 321 320 319 324 324 324 326 328 327 327 325 327 328 330 333 335 333 336 337 337 337 337 339 347 348 351 349 352 355 355 352
314 313 314 317 320 318 318 320 321 324 321 319 319 319 320 319 320 321 324 322 325 328 331 329 329 326 329 332 334 336 336 336 335 337 337 334 334 348 345 344 344 342 353 353 354
317 314 320 318 319 319 320 324 327 325 322 320 318 318 318 319 320 320 321 322 324 327 330 329 330 328 330 334 335 335 335 335 335 333 333 332 340 346 344 345 346 347 349 351 352
317 320 321 319 318 320 324 328 327 321 319 320 319 318 318 318 320 321 322 323 324 326 329 328 328 325 327 332 331 335 335 332 331 331 331 338 344 341 344 346 348 350 352 353 350
320 323 321 319 318 320 325 322 321 319 318 319 319 319 320 320 320 322 324 323 323 322 324 327 327 324 323 324 327 329 333 334 332 335 333 336 343 343 346 347 347 351 356 354 354
320 323 320 319 319 323 324 322 320 318 319 320 321 319 320 319 320 321 322 321 321 323 323 325 326 324 323 325 326 329 331 333 332 331 334 337 342 341 345 344 348 351 350 350 350
322 322 318 319 323 321 322 320 312 319 318 319 319 320 320 320 321 321 322 322 321 322 325 324 325 326 323 324 324 326 329 332 334 334 331 333 337 339 342 342 348 346 342 342 342
320 320 318 319 322 320 319 316 317 318 319 319 319 318 320 321 322 322 321 318 321 323 325 324 324 327 325 324 323 325 326 328 330 330 333 333 339 338 341 341 344 344 343 339 338
320 321 319 319 319 320 319 318 316 315 317 318 317 320 320 322 322 322 320 318 319 319 320 322 323 325 326 327 324 325 325 325 327 330 331 332 340 341 342 341 342 340 339 338 338
319 318 320 321 318 318 318 316 316 317 316 317 319 320 321 322 322 322 321 319 319 318 321 323 323 323 324 321 323 324 324 323 325 326 329 337 339 338 337 338 338 337 336 335 334
320 319 318 319 319 318 315 318 317 316 318 317 318 318 320 323 323 323 322 322 322 321 322 322 325 325 322 320 320 321 321 321 322 324 327 336 336 333 331 329 331 331 331 331 331
318 318 320 315 319 319 318 318 317 318 316 316 317 318 319 318 319 319 320 320 322 322 322 323 324 325 324 322 320 320 321 320 321 321 324 332 332 329 328 326 327 327 327 327 327
Wind_Speed
14 14 15 15 14 14 13 13 13 11 12 12 11 12 10 10 9 9 15 7 16 12 15 18 20 15 16 14 16 14 3 2 7 10 13 10 7 2 12 6 3 5 16 27 32
15 15 15 15 14 14 13 12 13 12 11 11 11 12 9 8 11 20 14 14 15 18 17 22 17 17 13 13 6 7 1 2 8 3 15 18 13 12 3 9 11 12 26 32 30
16 16 16 14 14 14 13 13 13 13 12 11 10 10 7 4 12 7 24 18 18 26 20 19 17 16 17 11 12 7 2 3 7 14 12 12 13 9 9 8 14 20 26 27 28
16 16 15 15 14 14 15 14 14 13 12 11 9 6 5 7 2 9 6 17 22 25 21 19 15 16 14 13 12 6 15 4 8 5 11 15 14 9 6 3 13 19 24 25 24
16 16 16 16 15 16 16 16 15 15 13 10 8 3 4 8 9 1 10 19 21 23 22 17 17 16 14 13 9 8 4 3 7 6 11 14 13 11 8 6 13 18 24 23 21
16 17 18 18 18 18 17 18 17 16 13 10 7 2 8 13 4 5 13 18 23 25 22 18 13 16 9 9 11 14 10 4 4 11 11 14 12 10 9 11 14 20 25 22 20
18 18 18 18 19 19 19 19 19 15 11 9 6 5 11 2 0 8 14 20 24 23 17 20 11 9 11 9 12 5 8 10 7 10 13 14 12 10 12 13 16 21 22 21 19
19 19 18 18 19 19 19 19 12 12 9 8 6 9 8 6 7 11 15 18 18 19 16 13 7 13 10 5 11 13 13 12 10 12 9 5 11 16 12 14 16 20 20 19 19
20 19 19 20 20 19 18 4 9 1 8 9 7 14 8 8 15 16 14 15 15 16 13 10 11 14 12 11 14 14 14 13 13 13 14 10 12 18 15 14 15 18 20 18 18
20 22 21 20 19 16 3 3 7 10 6 7 10 8 9 14 18 16 16 16 15 13 9 12 9 14 13 14 16 18 17 17 12 10 11 17 20 17 15 16 14 16 18 16 17
21 22 20 17 15 3 6 4 6 7 13 8 12 10 9 20 20 15 14 17 17 14 15 17 13 17 20 21 20 17 20 15 12 15 12 10 13 21 16 13 14 12 14 13 17
20 18 16 12 7 9 5 7 9 7 8 17 4 6 1 22 17 16 20 14 14 16 20 13 18 16 15 16 19 15 21 14 13 9 9 16 19 16 18 21 16 15 16 17 16
18 15 10 3 4 6 9 6 6 7 7 14 12 14 12 17 17 19 19 18 16 19 21 15 15 16 13 14 13 17 16 13 15 8 16 14 14 11 12 11 23 19 17 18 16
14 9 3 2 3 3 6 4 6 4 6 12 12 10 16 16 15 20 22 14 12 18 17 16 10 17 13 15 17 18 16 10 12 15 12 15 9 19 20 16 11 15 18 16 18
10 5 2 7 12 12 4 7 7 7 6 12 15 16 14 20 15 16 22 18 15 15 11 17 12 13 16 17 16 11 15 3 14 14 11 16 8 8 21 18 16 17 16 16 22
6 4 3 4 8 9 8 9 7 8 1 8 9 13 18 19 12 20 20 13 11 14 13 16 11 13 18 16 16 5 13 9 9 14 14 12 14 12 8 12 4 15 17 17 19
6 3 3 7 9 8 9 10 8 3 4 8 13 17 20 15 15 16 20 16 12 13 12 13 10 17 13 17 14 11 15 11 11 11 11 16 16 11 10 7 2 11 19 15 20
7 9 8 8 10 9 10 11 2 12 7 7 4 18 18 17 14 18 18 17 13 15 13 12 14 12 13 17 12 17 20 12 12 13 14 17 9 9 10 8 7 7 3 19 15
6 8 9 5 7 8 9 7 7 3 5 7 12 16 11 14 10 16 12 14 8 6 8 14 11 7 6 14 5 18 20 23 12 14 14 13 19 12 12 12 11 12 7 7 15
7 13 5 6 6 12 12 3 7 7 3 8 11 6 11 11 12 16 11 4 3 5 11 6 11 13 10 8 13 13 15 19 9 13 18 16 17 13 14 13 12 13 20 19 20
9 6 6 5 8 10 4 10 6 7 8 6 6 7 10 15 16 12 8 6 3 8 9 10 5 11 6 15 16 12 13 20 13 15 13 11 10 19 14 14 14 20 16 14 15
7 4 8 5 9 3 8 4 3 5 3 3 4 11 1 4 2 3 6 7 3 8 10 4 7 12 17 5 6 11 13 16 11 19 13 4 10 14 16 16 20 17 12 14 15
3 4 6 11 4 6 6 9 9 3 5 3 2 4 4 2 2 4 6 3 4 3 3 2 9 6 6 8 9 11 10 12 18 17 14 15 12 10 15 14 16 17 15 12 13
4 1 4 4 4 4 3 4 6 3 8 7 4 5 6 6 2 5 7 3 5 5 6 4 12 9 4 9 15 18 7 12 13 11 12 8 24 19 16 16 14 15 14 13 13
5 5 4 7 8 7 4 2 3 5 4 0 2 3 4 3 3 4 7 8 4 3 3 5 9 5 3 6 7 10 14 7 15 16 9 20 20 17 16 13 12 14 12 12 13
4 2 4 5 2 3 3 8 7 5 3 6 5 2 3 3 7 7 2 3 3 2 1 3 4 9 7 1 1 6 7 5 6 2 7 23 17 15 11 12 10 10 11 11 12
3 2 5 4 0 7 8 6 5 3 6 6 4 4 7 6 6 7 6 3 3 4 3 5 5 7 12 6 6 11 13 11 9 5 9 13 18 12 11 8 8 9 10 10 10
Wind_Direction
336 335 331 330 331 330 328 325 321 316 318 316 308 310 313 311 285 246 237 254 211 219 169 182 190 200 207 224 212 257 299 319 81 135 143 170 135 70 265 196 132 127 141 139 147
331 329 327 325 326 326 323 321 319 313 310 310 306 310 313 314 275 255 235 230 221 184 187 187 187 194 201 213 232 238 202 78 115 60 148 170 148 159 234 178 146 124 123 141 151
327 324 322 322 322 320 317 316 313 310 304 302 302 311 308 315 273 246 204 216 206 184 203 192 192 196 222 224 215 217 260 96 92 97 139 162 149 156 181 170 144 134 141 151 154
327 326 325 324 322 319 318 315 309 303 299 297 296 309 292 260 245 97 172 195 189 186 209 202 198 205 228 213 220 254 235 120 91 84 100 156 146 158 181 232 137 143 151 155 159
328 326 322 322 320 318 314 311 307 301 294 288 286 292 280 221 254 112 185 179 180 192 208 200 201 209 218 210 187 227 199 159 136 139 114 144 159 114 158 143 129 144 156 159 163
324 323 321 319 317 315 313 309 303 296 286 271 263 208 243 248 30 144 159 174 179 197 200 202 203 219 267 243 207 183 241 177 179 133 149 135 138 154 112 109 136 155 159 164 163
322 319 317 316 316 314 311 306 301 291 268 249 219 224 252 274 319 160 166 180 180 196 194 204 217 202 231 215 227 239 229 220 210 165 152 154 150 129 130 140 145 159 163 166 164
321 318 317 319 315 311 309 311 312 283 240 207 194 236 273 162 196 174 172 176 187 198 203 197 215 228 255 215 188 227 222 201 174 162 139 136 183 127 142 142 152 162 166 167 166
323 319 319 318 315 311 311 13 4 210 167 163 200 227 225 153 187 180 177 171 180 192 198 162 229 220 209 219 207 211 198 222 155 188 159 146 195 143 151 151 161 168 169 172 170
324 319 319 316 313 312 281 148 103 93 134 193 271 217 217 190 170 168 176 172 176 162 166 202 218 207 220 212 202 194 214 194 168 172 198 136 124 139 154 152 173 170 178 180 176
326 319 316 316 314 291 145 167 200 181 205 239 174 263 145 164 152 178 179 180 190 190 201 198 211 208 201 210 230 206 228 198 167 151 205 142 119 138 153 160 166 189 180 184 199
330 326 322 321 326 175 193 261 34 345 248 221 242 270 309 148 167 177 181 186 196 202 216 185 218 211 227 214 238 245 216 199 128 150 248 151 159 136 163 157 170 184 197 189 197
334 326 324 340 108 174 256 12 326 313 252 168 201 203 191 190 183 174 196 209 198 209 207 210 206 227 217 205 211 232 217 188 158 172 244 159 139 155 168 182 165 176 194 188 186
342 338 338 176 236 201 222 318 305 294 262 143 190 208 179 198 203 175 200 217 206 219 203 231 219 205 205 195 216 205 235 181 192 191 203 219 179 171 163 167 190 177 183 180 180
348 5 187 215 314 251 343 301 307 242 246 152 163 153 183 203 128 170 195 219 240 220 200 212 195 200 205 216 204 234 211 243 173 216 200 185 226 175 156 171 174 180 182 175 178
359 9 198 241 238 278 290 290 250 232 152 143 143 194 172 213 158 155 194 237 252 230 202 242 211 191 210 213 192 262 160 210 210 233 242 195 227 182 124 113 144 175 183 193 165
256 344 255 277 304 308 285 251 222 282 250 153 177 181 188 186 160 171 191 196 213 202 192 218 223 197 227 201 186 183 191 187 202 215 224 208 209 85 97 96 181 198 174 197 170
281 256 282 265 291 277 256 240 294 310 29 357 210 182 198 167 177 179 187 200 219 249 185 198 184 177 207 232 177 203 208 198 189 205 203 185 154 111 103 103 70 78 201 175 210
309 244 252 338 286 260 256 323 173 22 342 293 216 204 189 172 181 183 192 200 184 258 308 183 160 115 238 237 273 198 234 234 274 200 214 120 100 118 115 109 112 99 67 118 185
287 257 69 331 284 256 257 143 80 8 294 266 246 172 183 167 214 199 179 33 135 237 287 270 130 188 173 251 244 266 220 240 241 238 208 150 159 136 139 108 90 85 54 30 20
258 247 64 327 268 255 18 60 74 57 327 341 325 171 253 186 204 193 159 83 275 289 288 304 197 168 169 206 206 213 241 235 231 256 213 154 112 118 119 118 109 69 51 44 39
272 300 18 282 258 3 47 35 273 46 36 69 35 357 272 114 295 125 145 29 320 303 237 292 274 162 202 80 314 295 230 235 239 227 267 315 99 121 131 121 98 85 75 53 45
332 39 28 285 295 102 124 98 44 75 36 66 86 22 321 323 98 97 122 69 352 346 12 355 259 150 182 187 210 237 216 268 233 262 236 252 138 146 119 106 99 108 108 87 70
296 241 97 47 16 69 113 93 112 61 77 89 112 168 186 201 177 155 141 120 72 46 317 285 262 277 8 275 194 212 219 235 270 241 250 258 138 154 130 121 114 99 85 77 73
339 53 355 14 48 53 56 17 127 103 88 99 114 207 244 172 158 150 137 149 151 126 242 303 262 267 61 6 339 179 199 206 243 257 312 129 135 136 127 109 96 103 88 80 69
352 4 111 65 324 149 132 47 80 85 338 84 94 118 206 181 330 147 178 236 113 156 271 262 212 288 212 259 255 247 201 217 281 336 259 111 108 101 119 122 104 94 89 77 62
61 78 291 188 222 52 35 42 71 68 62 52 42 117 122 60 13 21 1 15 57 284 201 261 247 222 256 181 259 245 237 211 216 212 305 166 142 141 130 119 112 98 77 64 56